OROVILLE DAM (ORO)

Elevation: 900' · FEATHER R basin · Operator: CA Dept of Water Resources/O & M

Provisional data, subject to change.
Query executed Sunday at 2:57:24   clock

Select a sensor type for a plot of data.
Note: Reservoir Flows are daily averages.

Earlier

Date RES ELE    STORAGE    RES CHG    TOC STO    ABV TOC    OUTFLOW    INFLOW    EVAP    FNF    PPT INC    RAIN    PPTINC4   
 FEET   AF   AF   AF   AF   CFS   CFS   CFS   CFS   INCHES   INCHES   INCHES  
05/28/2016 885.82 3318492 -3021 3538000 -219508 4722 3304 104 4112 0.00 30.40 0.00
05/29/2016 885.54 3314266 -4226 3538000 -223734 4585 2483 104 3584 0.00 30.40 0.00
05/30/2016 885.35 3311400 -2865 3538000 -226600 4518 3254 104 3584 0.00 30.40 0.00
05/31/2016 885.08 3307332 -4068 3538000 -230668 4656 2938 334 3849 0.00 30.40 0.00
06/01/2016 884.71 3301763 -5570 3538000 -236237 5024 2407 192 3662 0.00 30.40 0.00
06/02/2016 884.21 3294247 -7516 3538000 -243753 5055 1474 209 3005 0.00 30.40 0.00
06/03/2016 883.84 3288694 -5553 3538000 -249306 5301 2617 192 3662 0.00 30.40 0.00
06/04/2016 883.26 3280001 -8693 3538000 -257999 6249 2041 174 3317 0.00 30.40 0.00
06/05/2016 882.74 3272222 -7779 3538000 -265778 6534 2786 173 3894 0.00 30.40 0.00
06/06/2016 882.20 3264158 -8064 3538000 -273842 5525 1663 204 3369 0.00 30.40 0.00
06/07/2016 881.73 3257150 -7008 3538000 -280850 5180 1895 173 2702 0.00 30.40 0.00
06/08/2016 881.36 3251641 -5509 3538000 -286359 4550 1923 151 2859 0.00 30.40 0.00
06/09/2016 881.05 3247031 -4610 3538000 -290969 4617 2364 146 3259 0.00 30.40 0.00
06/10/2016 880.56 3239753 -7278 3538000 -298247 4906 1458 146 2470 e 0.00 30.40 0.00
06/11/2016 879.94 3230581 -9172 3538000 -307419 6504 1925 129 2469 e 0.00 30.40 0.00
06/12/2016 879.20 3219636 -10945 3538000 -318364 6506 1191 129 1985 0.00 30.40 0.00
06/13/2016 878.38 3207539 -12097 3538000 -330461 6519 716 222 1649 e 0.00 30.40 0.00
06/14/2016 877.43 3193564 -13975 3538000 -344436 7847 737 158 1925 0.00 30.40 0.00
06/15/2016 876.58 3181097 -12467 3538000 -356903 7366 1273 119 1649 e 0.00 30.40 0.00
06/16/2016 875.70 3168226 -12870 3538000 -369774 7109 627 80 2069 e 0.00 30.40 0.00
06/17/2016 875.03 3158452 -9774 3538000 -379548 5524 676 80 2489 e 0.00 30.40 0.00
06/18/2016 874.10 3144920 -13533 3538000 -393080 8118 1454 84 2489 e 0.28 30.68 0.20
06/19/2016 873.14 3130995 -13925 3538000 -407005 8141 1226 105 2509 0.00 30.68 0.04
06/20/2016 872.15 3116680 -14315 3538000 -421320 9244 2113 159 -- 0.00 30.68 0.00
06/21/2016 871.34 3105003 -11677 3538000 -432997 9219 3606 201 -- 0.00 30.68 0.00
06/22/2016 870.29 3089911 -15092 3538000 -448089 8648 1147 179 -- 0.00 30.68 0.00
06/23/2016 869.31 e 3075873 e -14038 3538000 -462127 e 8890 1830 161 -- 0.00 30.68 0.00
06/24/2016 868.13 3059030 -16843 3538000 -478970 8955 752 145 -- 0.00 30.68 0.00
06/25/2016 -- -- -- 3538000 -- 8988 2034 144 -- -- -- 0.00
06/26/2016 -- -- -- -- -- -- -- -- -- -- -- --

Later | Latest

Warning! This data is preliminary and subject to revision.

Show ORO Map | Plot ORO Data | 1 Month ORO Data | Real-Time ORO Data | ORO Info